Time,TemperatureF,DewpointF,PressureIn,WindDirection,WindDirectionDegrees,WindSpeedMPH,WindSpeedGustMPH,Humidity,HourlyPrecipIn,Conditions,Clouds,dailyrainin,SolarRadiationWatts/m^2,SoftwareType,DateUTC
2013-04-16 00:00:00,64.2,54.6,29.84,SE,143,3.0,4.0,71,0.00,,,0.00,0,Wunderground v.1.15,2013-04-16 04:00:00,
2013-04-16 00:05:00,64.3,54.7,29.84,ESE,118,3.0,4.0,71,0.00,,,0.00,0,Wunderground v.1.15,2013-04-16 04:05:00,
2013-04-16 00:10:00,64.2,54.6,29.84,ESE,122,4.0,4.0,71,0.00,,,0.00,0,Wunderground v.1.15,2013-04-16 04:10:00,
2013-04-16 00:15:00,64.1,54.5,29.84,ESE,114,4.0,4.0,71,0.00,,,0.00,0,Wunderground v.1.15,2013-04-16 04:15:00,
2013-04-16 00:20:00,64.0,54.4,29.84,ESE,114,3.0,3.0,71,0.00,,,0.00,0,Wunderground v.1.15,2013-04-16 04:20:00,
2013-04-16 00:25:00,63.9,54.3,29.84,ESE,107,3.0,3.0,71,0.00,,,0.00,0,Wunderground v.1.15,2013-04-16 04:25:00,
2013-04-16 00:30:00,63.7,54.5,29.84,ESE,117,3.0,3.0,72,0.00,,,0.00,0,Wunderground v.1.15,2013-04-16 04:30:00,
2013-04-16 00:35:00,63.3,54.5,29.84,SE,132,2.0,3.0,73,0.00,,,0.00,0,Wunderground v.1.15,2013-04-16 04:35:00,
2013-04-16 00:45:00,62.6,54.2,29.84,ESE,106,1.0,2.0,74,0.00,,,0.00,0,Wunderground v.1.15,2013-04-16 04:45:00,
2013-04-16 00:55:00,62.4,54.0,29.84,ESE,122,2.0,2.0,74,0.00,,,0.00,0,Wunderground v.1.15,2013-04-16 04:55:00,
2013-04-16 01:00:00,62.2,54.2,29.84,ESE,116,1.0,3.0,75,0.00,,,0.00,0,Wunderground v.1.15,2013-04-16 05:00:00,
2013-04-16 01:10:00,62.7,54.3,29.84,SE,133,2.0,2.0,74,0.00,,,0.00,0,Wunderground v.1.15,2013-04-16 05:10:00,
2013-04-16 01:15:00,62.5,54.1,29.84,ESE,119,1.0,3.0,74,0.00,,,0.00,0,Wunderground v.1.15,2013-04-16 05:15:00,
2013-04-16 01:25:00,62.1,54.1,29.84,SE,137,0.0,1.0,75,0.00,,,0.00,0,Wunderground v.1.15,2013-04-16 05:25:00,
2013-04-16 01:30:00,62.1,54.1,29.84,SE,129,0.0,0.0,75,0.00,,,0.00,0,Wunderground v.1.15,2013-04-16 05:30:00,
2013-04-16 01:40:00,62.2,54.2,29.84,SE,128,0.0,0.0,75,0.00,,,0.00,0,Wunderground v.1.15,2013-04-16 05:40:00,
2013-04-16 01:45:00,62.1,54.1,29.84,SE,128,0.0,0.0,75,0.00,,,0.00,0,Wunderground v.1.15,2013-04-16 05:45:00,
2013-04-16 01:55:00,62.0,54.3,29.84,SSW,212,0.0,0.0,76,0.00,,,0.00,0,Wunderground v.1.15,2013-04-16 05:55:00,
2013-04-16 02:00:00,62.2,54.9,29.84,SSW,192,0.0,3.0,77,0.00,,,0.00,0,Wunderground v.1.15,2013-04-16 06:00:00,
2013-04-16 02:10:00,63.5,55.8,29.84,SSE,160,1.0,6.0,76,0.00,,,0.00,0,Wunderground v.1.15,2013-04-16 06:10:00,
2013-04-16 02:15:00,64.7,56.6,29.84,SW,229,3.0,6.0,75,0.00,,,0.00,0,Wunderground v.1.15,2013-04-16 06:15:00,
2013-04-16 02:25:00,65.8,57.3,29.84,SSW,194,2.0,3.0,74,0.00,,,0.00,0,Wunderground v.1.15,2013-04-16 06:25:00,
2013-04-16 02:30:00,66.2,57.3,29.84,SW,229,2.0,3.0,73,0.00,,,0.00,0,Wunderground v.1.15,2013-04-16 06:30:00,
2013-04-16 02:40:00,66.6,57.3,29.84,SW,226,3.0,8.0,72,0.00,,,0.00,0,Wunderground v.1.15,2013-04-16 06:40:00,
2013-04-16 02:45:00,66.5,57.6,29.84,SSW,207,3.0,8.0,73,0.00,,,0.00,0,Wunderground v.1.15,2013-04-16 06:45:00,
2013-04-16 02:55:00,66.4,57.5,29.84,South,176,2.0,2.0,73,0.00,,,0.00,0,Wunderground v.1.15,2013-04-16 06:55:00,
2013-04-16 03:00:00,66.2,57.7,29.85,West,270,2.0,3.0,74,0.00,,,0.00,0,Wunderground v.1.15,2013-04-16 07:00:00,
2013-04-16 03:10:00,66.2,58.0,29.85,WNW,284,3.0,3.0,75,0.00,,,0.00,0,Wunderground v.1.15,2013-04-16 07:10:00,
2013-04-16 03:15:00,66.1,57.9,29.85,SSW,199,3.0,7.0,75,0.00,,,0.00,0,Wunderground v.1.15,2013-04-16 07:15:00,
2013-04-16 03:25:00,66.1,57.9,29.85,SW,214,2.0,2.0,75,0.00,,,0.00,0,Wunderground v.1.15,2013-04-16 07:25:00,
2013-04-16 03:30:00,66.2,58.4,29.86,SSW,207,3.0,3.0,76,0.00,,,0.00,0,Wunderground v.1.15,2013-04-16 07:30:00,
2013-04-16 03:40:00,66.6,58.8,29.86,WSW,245,3.0,3.0,76,0.00,,,0.00,0,Wunderground v.1.15,2013-04-16 07:40:00,
2013-04-16 03:45:00,66.7,58.5,29.86,SW,224,3.0,3.0,75,0.00,,,0.00,0,Wunderground v.1.15,2013-04-16 07:45:00,
2013-04-16 03:55:00,66.5,58.7,29.87,WNW,282,3.0,3.0,76,0.00,,,0.00,0,Wunderground v.1.15,2013-04-16 07:55:00,
2013-04-16 04:00:00,66.5,58.7,29.87,SW,215,2.0,2.0,76,0.00,,,0.00,0,Wunderground v.1.15,2013-04-16 08:00:00,
2013-04-16 04:10:00,66.3,58.9,29.87,SW,221,3.0,3.0,77,0.00,,,0.00,0,Wunderground v.1.15,2013-04-16 08:10:00,
2013-04-16 04:15:00,66.1,58.7,29.87,SSW,201,2.0,3.0,77,0.00,,,0.00,0,Wunderground v.1.15,2013-04-16 08:15:00,
2013-04-16 04:25:00,65.9,58.5,29.87,SSW,205,2.0,2.0,77,0.00,,,0.00,0,Wunderground v.1.15,2013-04-16 08:25:00,
2013-04-16 04:30:00,65.8,58.7,29.87,South,170,2.0,2.0,78,0.00,,,0.00,0,Wunderground v.1.15,2013-04-16 08:30:00,
2013-04-16 04:40:00,65.6,58.6,29.87,SSE,164,2.0,6.0,78,0.00,,,0.00,0,Wunderground v.1.15,2013-04-16 08:40:00,
2013-04-16 04:45:00,65.6,58.6,29.87,South,191,3.0,6.0,78,0.00,,,0.00,0,Wunderground v.1.15,2013-04-16 08:45:00,
2013-04-16 04:55:00,65.5,58.5,29.88,South,179,1.0,2.0,78,0.00,,,0.00,0,Wunderground v.1.15,2013-04-16 08:55:00,
2013-04-16 05:00:00,65.3,58.6,29.88,SW,222,1.0,1.0,79,0.00,,,0.00,0,Wunderground v.1.15,2013-04-16 09:00:00,
2013-04-16 05:10:00,65.2,58.9,29.89,SSW,212,1.0,4.0,80,0.00,,,0.00,0,Wunderground v.1.15,2013-04-16 09:10:00,
2013-04-16 05:15:00,65.2,58.5,29.89,WSW,256,2.0,4.0,79,0.00,,,0.00,0,Wunderground v.1.15,2013-04-16 09:15:00,
2013-04-16 05:25:00,65.1,58.8,29.90,SW,220,2.0,2.0,80,0.00,,,0.00,0,Wunderground v.1.15,2013-04-16 09:25:00,
2013-04-16 05:30:00,65.2,58.9,29.89,SW,227,2.0,2.0,80,0.00,,,0.00,0,Wunderground v.1.15,2013-04-16 09:30:00,
2013-04-16 05:40:00,65.5,59.2,29.90,SSW,208,2.0,5.0,80,0.00,,,0.00,0,Wunderground v.1.15,2013-04-16 09:40:00,
2013-04-16 05:45:00,65.6,59.3,29.90,WSW,252,3.0,5.0,80,0.00,,,0.00,0,Wunderground v.1.15,2013-04-16 09:45:00,
2013-04-16 05:55:00,65.6,59.3,29.91,SSW,201,3.0,7.0,80,0.00,,,0.00,0,Wunderground v.1.15,2013-04-16 09:55:00,
2013-04-16 06:00:00,65.6,59.3,29.91,South,181,3.0,3.0,80,0.00,,,0.00,0,Wunderground v.1.15,2013-04-16 10:00:00,
2013-04-16 06:10:00,65.4,59.1,29.91,South,181,2.0,9.0,80,0.00,,,0.00,0,Wunderground v.1.15,2013-04-16 10:10:00,
2013-04-16 06:15:00,65.6,59.3,29.92,SW,223,3.0,9.0,80,0.00,,,0.00,0,Wunderground v.1.15,2013-04-16 10:15:00,
2013-04-16 06:25:00,65.5,59.2,29.92,SSW,210,2.0,4.0,80,0.00,,,0.00,0,Wunderground v.1.15,2013-04-16 10:25:00,
2013-04-16 06:30:00,65.5,59.2,29.93,SW,218,3.0,3.0,80,0.00,,,0.00,0,Wunderground v.1.15,2013-04-16 10:30:00,
2013-04-16 06:40:00,65.4,59.4,29.93,WSW,239,1.0,1.0,81,0.00,,,0.00,0,Wunderground v.1.15,2013-04-16 10:40:00,
2013-04-16 06:45:00,65.3,59.3,29.93,SSW,208,2.0,2.0,81,0.00,,,0.00,0,Wunderground v.1.15,2013-04-16 10:45:00,
2013-04-16 06:55:00,65.4,59.4,29.93,SW,214,3.0,3.0,81,0.00,,,0.00,0,Wunderground v.1.15,2013-04-16 10:55:00,
2013-04-16 07:00:00,65.4,59.4,29.94,SSW,208,2.0,2.0,81,0.00,,,0.00,0,Wunderground v.1.15,2013-04-16 11:00:00,
2013-04-16 07:10:00,65.3,59.3,29.94,SSW,197,2.0,2.0,81,0.00,,,0.00,0,Wunderground v.1.15,2013-04-16 11:10:00,
2013-04-16 07:15:00,65.3,59.3,29.94,SSW,212,2.0,3.0,81,0.00,,,0.00,7,Wunderground v.1.15,2013-04-16 11:15:00,
2013-04-16 07:25:00,65.3,59.3,29.95,SW,229,2.0,2.0,81,0.00,,,0.00,16,Wunderground v.1.15,2013-04-16 11:25:00,
2013-04-16 07:30:00,65.4,59.4,29.95,South,187,2.0,2.0,81,0.00,,,0.00,14,Wunderground v.1.15,2013-04-16 11:30:00,
2013-04-16 07:35:00,65.3,59.3,29.96,SSW,198,1.0,2.0,81,0.00,,,0.00,21,Wunderground v.1.15,2013-04-16 11:35:00,
2013-04-16 07:45:00,65.4,59.4,29.97,SSW,210,2.0,4.0,81,0.00,,,0.00,65,Wunderground v.1.15,2013-04-16 11:45:00,
2013-04-16 07:50:00,65.6,59.6,29.96,SW,215,2.0,2.0,81,0.00,,,0.00,65,Wunderground v.1.15,2013-04-16 11:50:00,
2013-04-16 08:00:00,65.9,59.9,29.97,SSE,164,2.0,2.0,81,0.00,,,0.00,58,Wunderground v.1.15,2013-04-16 12:00:00,
2013-04-16 08:10:00,66.2,60.2,29.98,SW,224,3.0,3.0,81,0.00,,,0.00,98,Wunderground v.1.15,2013-04-16 12:10:00,
2013-04-16 08:15:00,66.4,60.4,29.97,South,178,3.0,3.0,81,0.00,,,0.00,111,Wunderground v.1.15,2013-04-16 12:15:00,
2013-04-16 08:20:00,66.6,60.2,29.98,West,263,3.0,3.0,80,0.00,,,0.00,104,Wunderground v.1.15,2013-04-16 12:20:00,
2013-04-16 08:30:00,66.8,60.4,29.98,SW,214,3.0,3.0,80,0.00,,,0.00,109,Wunderground v.1.15,2013-04-16 12:30:00,
2013-04-16 08:35:00,67.0,60.6,29.98,SW,215,3.0,3.0,80,0.00,,,0.00,160,Wunderground v.1.15,2013-04-16 12:35:00,
2013-04-16 08:45:00,67.1,60.7,29.99,SW,227,3.0,3.0,80,0.00,,,0.00,95,Wunderground v.1.15,2013-04-16 12:45:00,
2013-04-16 08:50:00,67.2,60.8,29.98,SSW,197,2.0,2.0,80,0.00,,,0.00,100,Wunderground v.1.15,2013-04-16 12:50:00,
2013-04-16 09:00:00,67.5,60.8,29.99,SSW,196,3.0,3.0,79,0.00,,,0.00,211,Wunderground v.1.15,2013-04-16 13:00:00,
2013-04-16 09:05:00,67.7,61.0,29.99,WSW,241,4.0,4.0,79,0.00,,,0.00,186,Wunderground v.1.15,2013-04-16 13:05:00,
2013-04-16 09:15:00,67.9,61.1,29.99,WSW,254,4.0,5.0,79,0.00,,,0.00,33,Wunderground v.1.15,2013-04-16 13:15:00,
2013-04-16 09:20:00,67.9,61.1,29.99,SW,222,3.0,3.0,79,0.00,,,0.00,62,Wunderground v.1.15,2013-04-16 13:20:00,
2013-04-16 09:30:00,67.8,61.0,30.00,West,259,2.0,3.0,79,0.00,,,0.00,49,Wunderground v.1.15,2013-04-16 13:30:00,
2013-04-16 09:35:00,67.7,61.0,30.00,SSW,194,3.0,3.0,79,0.00,,,0.00,91,Wunderground v.1.15,2013-04-16 13:35:00,
2013-04-16 09:45:00,67.6,61.2,30.00,SSW,193,3.0,7.0,80,0.00,,,0.00,63,Wunderground v.1.15,2013-04-16 13:45:00,
2013-04-16 09:50:00,67.6,61.2,30.00,West,259,3.0,3.0,80,0.00,,,0.00,179,Wunderground v.1.15,2013-04-16 13:50:00,
2013-04-16 10:00:00,67.9,61.5,30.00,SW,232,3.0,3.0,80,0.00,,,0.00,153,Wunderground v.1.15,2013-04-16 14:00:00,
2013-04-16 10:05:00,68.2,61.8,30.00,SE,131,2.0,7.0,80,0.00,,,0.00,156,Wunderground v.1.15,2013-04-16 14:05:00,
2013-04-16 10:15:00,68.6,61.8,30.00,SSW,210,3.0,4.0,79,0.00,,,0.00,243,Wunderground v.1.15,2013-04-16 14:15:00,
2013-04-16 10:20:00,68.7,61.9,30.00,SSW,206,3.0,3.0,79,0.00,,,0.00,336,Wunderground v.1.15,2013-04-16 14:20:00,
2013-04-16 10:30:00,69.9,62.4,29.99,WSW,247,2.0,3.0,77,0.00,,,0.00,561,Wunderground v.1.15,2013-04-16 14:30:00,
2013-04-16 10:35:00,70.4,62.5,30.00,South,188,2.0,3.0,76,0.00,,,0.00,422,Wunderground v.1.15,2013-04-16 14:35:00,
2013-04-16 10:45:00,70.2,62.6,29.99,WSW,257,4.0,4.0,77,0.00,,,0.00,594,Wunderground v.1.15,2013-04-16 14:45:00,
2013-04-16 10:50:00,71.0,63.1,29.99,South,191,3.0,5.0,76,0.00,,,0.00,631,Wunderground v.1.15,2013-04-16 14:50:00,
2013-04-16 11:00:00,71.7,63.4,29.99,SSE,157,3.0,3.0,75,0.00,,,0.00,624,Wunderground v.1.15,2013-04-16 15:00:00,
2013-04-16 11:05:00,72.3,63.5,29.99,SW,225,3.0,4.0,74,0.00,,,0.00,621,Wunderground v.1.15,2013-04-16 15:05:00,
2013-04-16 11:15:00,72.6,63.8,30.00,WNW,289,4.0,8.0,74,0.00,,,0.00,425,Wunderground v.1.15,2013-04-16 15:15:00,
2013-04-16 11:20:00,72.5,63.4,30.00,SW,219,3.0,3.0,73,0.00,,,0.00,260,Wunderground v.1.15,2013-04-16 15:20:00,
2013-04-16 11:30:00,72.3,63.5,30.00,South,177,4.0,4.0,74,0.00,,,0.00,362,Wunderground v.1.15,2013-04-16 15:30:00,
2013-04-16 11:35:00,72.2,63.4,30.00,SW,228,4.0,4.0,74,0.00,,,0.00,304,Wunderground v.1.15,2013-04-16 15:35:00,
2013-04-16 11:45:00,72.2,63.4,30.00,South,174,4.0,10.0,74,0.00,,,0.00,209,Wunderground v.1.15,2013-04-16 15:45:00,
2013-04-16 11:55:00,71.7,63.4,30.00,SW,230,4.0,6.0,75,0.00,,,0.00,155,Wunderground v.1.15,2013-04-16 15:55:00,
2013-04-16 12:00:00,71.3,63.3,30.00,SW,224,4.0,4.0,76,0.00,,,0.00,167,Wunderground v.1.15,2013-04-16 16:00:00,
2013-04-16 12:10:00,71.5,63.5,30.00,WSW,242,3.0,7.0,76,0.00,,,0.00,255,Wunderground v.1.15,2013-04-16 16:10:00,
2013-04-16 12:15:00,71.6,63.6,30.00,West,276,4.0,7.0,76,0.00,,,0.00,197,Wunderground v.1.15,2013-04-16 16:15:00,
2013-04-16 12:20:00,71.8,63.8,30.00,SSW,196,4.0,4.0,76,0.00,,,0.00,229,Wunderground v.1.15,2013-04-16 16:20:00,
2013-04-16 12:30:00,72.3,64.3,29.99,WSW,243,3.0,3.0,76,0.00,,,0.00,302,Wunderground v.1.15,2013-04-16 16:30:00,
2013-04-16 12:40:00,72.7,64.3,29.99,WSW,243,3.0,4.0,75,0.00,,,0.00,466,Wunderground v.1.15,2013-04-16 16:40:00,
2013-04-16 12:45:00,73.0,64.6,29.99,WSW,256,4.0,4.0,75,0.00,,,0.00,441,Wunderground v.1.15,2013-04-16 16:45:00,
2013-04-16 12:50:00,73.5,64.7,29.99,West,281,4.0,4.0,74,0.00,,,0.00,499,Wunderground v.1.15,2013-04-16 16:50:00,
2013-04-16 13:00:00,74.8,64.8,29.98,SSW,210,3.0,6.0,71,0.00,,,0.00,478,Wunderground v.1.15,2013-04-16 17:00:00,
2013-04-16 13:10:00,74.7,65.1,29.98,SSE,165,3.0,4.0,72,0.00,,,0.00,262,Wunderground v.1.15,2013-04-16 17:10:00,
2013-04-16 13:15:00,74.6,65.0,29.98,SSW,209,3.0,4.0,72,0.00,,,0.00,322,Wunderground v.1.15,2013-04-16 17:15:00,
2013-04-16 13:25:00,74.6,65.0,29.98,South,169,3.0,4.0,72,0.00,,,0.00,343,Wunderground v.1.15,2013-04-16 17:25:00,
2013-04-16 13:30:00,74.5,64.9,29.98,South,170,3.0,3.0,72,0.00,,,0.00,301,Wunderground v.1.15,2013-04-16 17:30:00,
2013-04-16 13:35:00,74.5,65.3,29.98,SSW,202,3.0,3.0,73,0.00,,,0.00,223,Wunderground v.1.15,2013-04-16 17:35:00,
2013-04-16 13:45:00,74.3,65.1,29.97,SSW,206,4.0,4.0,73,0.00,,,0.00,499,Wunderground v.1.15,2013-04-16 17:45:00,
2013-04-16 13:55:00,75.1,65.5,29.97,SE,135,3.0,3.0,72,0.00,,,0.00,504,Wunderground v.1.15,2013-04-16 17:55:00,
2013-04-16 14:00:00,75.4,65.7,29.97,SSW,199,3.0,3.0,72,0.00,,,0.00,348,Wunderground v.1.15,2013-04-16 18:00:00,
2013-04-16 14:05:00,75.0,65.4,29.96,SSE,168,3.0,3.0,72,0.00,,,0.00,209,Wunderground v.1.15,2013-04-16 18:05:00,
2013-04-16 14:15:00,74.8,65.6,29.96,SSE,162,2.0,5.0,73,0.00,,,0.00,323,Wunderground v.1.15,2013-04-16 18:15:00,
2013-04-16 14:25:00,74.9,65.7,29.96,SSE,163,2.0,5.0,73,0.00,,,0.00,387,Wunderground v.1.15,2013-04-16 18:25:00,
2013-04-16 14:30:00,75.2,65.6,29.96,WSW,237,3.0,5.0,72,0.00,,,0.00,462,Wunderground v.1.15,2013-04-16 18:30:00,
2013-04-16 14:40:00,75.6,65.9,29.96,SSW,201,4.0,4.0,72,0.00,,,0.00,468,Wunderground v.1.15,2013-04-16 18:40:00,
2013-04-16 14:45:00,76.2,65.7,29.96,WSW,241,3.0,4.0,70,0.00,,,0.00,418,Wunderground v.1.15,2013-04-16 18:45:00,
2013-04-16 14:50:00,75.9,65.8,29.96,SSW,200,4.0,4.0,71,0.00,,,0.00,459,Wunderground v.1.15,2013-04-16 18:50:00,
2013-04-16 15:00:00,76.5,66.0,29.96,South,188,4.0,5.0,70,0.00,,,0.00,448,Wunderground v.1.15,2013-04-16 19:00:00,
2013-04-16 15:10:00,76.9,66.4,29.96,SW,235,4.0,4.0,70,0.00,,,0.00,345,Wunderground v.1.15,2013-04-16 19:10:00,
2013-04-16 15:15:00,77.2,66.2,29.96,West,268,3.0,4.0,69,0.00,,,0.00,200,Wunderground v.1.15,2013-04-16 19:15:00,
2013-04-16 15:25:00,76.5,66.0,29.96,SW,223,4.0,8.0,70,0.00,,,0.00,299,Wunderground v.1.15,2013-04-16 19:25:00,
2013-04-16 15:30:00,76.7,65.8,29.95,West,266,4.0,4.0,69,0.00,,,0.00,879,Wunderground v.1.15,2013-04-16 19:30:00,
2013-04-16 15:35:00,77.4,66.0,29.95,West,281,5.0,5.0,68,0.00,,,0.00,858,Wunderground v.1.15,2013-04-16 19:35:00,
2013-04-16 15:45:00,78.0,66.2,29.95,South,169,4.0,5.0,67,0.00,,,0.00,345,Wunderground v.1.15,2013-04-16 19:45:00,
2013-04-16 15:55:00,78.4,66.5,29.95,West,266,4.0,7.0,67,0.00,,,0.00,367,Wunderground v.1.15,2013-04-16 19:55:00,
2013-04-16 16:00:00,78.2,65.9,29.95,WNW,300,3.0,3.0,66,0.00,,,0.00,550,Wunderground v.1.15,2013-04-16 20:00:00,
2013-04-16 16:05:00,78.2,66.3,29.95,West,266,4.0,4.0,67,0.00,,,0.00,893,Wunderground v.1.15,2013-04-16 20:05:00,
2013-04-16 16:15:00,79.1,66.3,29.95,South,190,2.0,4.0,65,0.00,,,0.00,503,Wunderground v.1.15,2013-04-16 20:15:00,
2013-04-16 16:20:00,79.7,66.4,29.95,SW,216,2.0,3.0,64,0.00,,,0.00,297,Wunderground v.1.15,2013-04-16 20:20:00,
2013-04-16 16:30:00,79.4,66.2,29.94,SE,142,4.0,5.0,64,0.00,,,0.00,225,Wunderground v.1.15,2013-04-16 20:30:00,
2013-04-16 16:40:00,80.0,65.8,29.95,WSW,257,3.0,3.0,62,0.00,,,0.00,536,Wunderground v.1.15,2013-04-16 20:40:00,
2013-04-16 16:50:00,79.9,66.2,29.94,West,262,5.0,5.0,63,0.00,,,0.00,670,Wunderground v.1.15,2013-04-16 20:50:00,
2013-04-16 16:55:00,80.7,66.5,29.94,WNW,290,4.0,7.0,62,0.00,,,0.00,745,Wunderground v.1.15,2013-04-16 20:55:00,
2013-04-16 17:00:00,80.8,66.1,29.94,West,271,3.0,3.0,61,0.00,,,0.00,591,Wunderground v.1.15,2013-04-16 21:00:00,
2013-04-16 17:10:00,81.3,66.6,29.94,SSW,199,2.0,5.0,61,0.00,,,0.00,248,Wunderground v.1.15,2013-04-16 21:10:00,
2013-04-16 17:15:00,80.6,65.9,29.93,WSW,237,2.0,5.0,61,0.00,,,0.00,390,Wunderground v.1.15,2013-04-16 21:15:00,
2013-04-16 17:25:00,80.0,65.8,29.93,SW,228,4.0,7.0,62,0.00,,,0.00,278,Wunderground v.1.15,2013-04-16 21:25:00,
2013-04-16 17:30:00,79.8,66.1,29.93,WSW,247,4.0,4.0,63,0.00,,,0.00,232,Wunderground v.1.15,2013-04-16 21:30:00,
2013-04-16 17:40:00,79.7,66.0,29.93,WSW,258,4.0,4.0,63,0.00,,,0.00,547,Wunderground v.1.15,2013-04-16 21:40:00,
2013-04-16 17:45:00,80.1,66.4,29.93,ESE,120,3.0,4.0,63,0.00,,,0.00,274,Wunderground v.1.15,2013-04-16 21:45:00,
2013-04-16 17:55:00,80.0,65.8,29.94,West,267,3.0,3.0,62,0.00,,,0.00,292,Wunderground v.1.15,2013-04-16 21:55:00,
2013-04-16 18:00:00,79.8,66.1,29.94,West,259,4.0,4.0,63,0.00,,,0.00,264,Wunderground v.1.15,2013-04-16 22:00:00,
2013-04-16 18:10:00,80.2,66.0,29.94,SW,224,2.0,2.0,62,0.00,,,0.00,195,Wunderground v.1.15,2013-04-16 22:10:00,
2013-04-16 18:15:00,80.4,66.2,29.94,South,174,2.0,4.0,62,0.00,,,0.00,332,Wunderground v.1.15,2013-04-16 22:15:00,
2013-04-16 18:20:00,80.4,65.7,29.94,SSE,147,2.0,2.0,61,0.00,,,0.00,220,Wunderground v.1.15,2013-04-16 22:20:00,
2013-04-16 18:30:00,80.1,65.4,29.95,West,267,2.0,2.0,61,0.00,,,0.00,218,Wunderground v.1.15,2013-04-16 22:30:00,
2013-04-16 18:40:00,80.0,65.8,29.94,SSW,208,1.0,1.0,62,0.00,,,0.00,118,Wunderground v.1.15,2013-04-16 22:40:00,
2013-04-16 18:45:00,79.6,65.4,29.95,WSW,253,1.0,1.0,62,0.00,,,0.00,105,Wunderground v.1.15,2013-04-16 22:45:00,
2013-04-16 18:50:00,79.4,65.2,29.95,SSW,196,1.0,1.0,62,0.00,,,0.00,105,Wunderground v.1.15,2013-04-16 22:50:00,
2013-04-16 19:00:00,79.0,65.3,29.94,SW,222,1.0,1.0,63,0.00,,,0.00,100,Wunderground v.1.15,2013-04-16 23:00:00,
2013-04-16 19:05:00,79.0,65.3,29.94,SW,218,1.0,2.0,63,0.00,,,0.00,90,Wunderground v.1.15,2013-04-16 23:05:00,
2013-04-16 19:15:00,77.6,62.6,29.95,ENE,68,2.0,4.0,60,0.00,,,0.00,70,Wunderground v.1.15,2013-04-16 23:15:00,
2013-04-16 19:20:00,73.4,61.3,29.96,NE,54,5.0,5.0,66,0.00,,,0.00,49,Wunderground v.1.15,2013-04-16 23:20:00,
2013-04-16 19:25:00,71.5,61.2,29.96,ENE,62,6.0,6.0,70,0.00,,,0.00,46,Wunderground v.1.15,2013-04-16 23:25:00,
2013-04-16 19:35:00,69.5,60.5,29.96,NE,54,5.0,7.0,73,0.00,,,0.00,19,Wunderground v.1.15,2013-04-16 23:35:00,
2013-04-16 19:40:00,68.9,60.3,29.97,NNE,17,5.0,5.0,74,0.00,,,0.00,0,Wunderground v.1.15,2013-04-16 23:40:00,
2013-04-16 19:50:00,67.7,59.9,29.97,ENE,60,5.0,5.0,76,0.00,,,0.00,7,Wunderground v.1.15,2013-04-16 23:50:00,
2013-04-16 19:55:00,67.1,60.0,29.97,NNE,21,5.0,5.0,78,0.00,,,0.00,0,Wunderground v.1.15,2013-04-16 23:55:00,
2013-04-16 20:05:00,66.8,60.1,29.97,East,98,3.0,4.0,79,0.00,,,0.00,0,Wunderground v.1.15,2013-04-17 00:05:00,
2013-04-16 20:10:00,66.6,59.9,29.98,NE,52,3.0,3.0,79,0.00,,,0.00,0,Wunderground v.1.15,2013-04-17 00:10:00,
2013-04-16 20:15:00,66.4,59.7,29.97,NE,48,4.0,15.0,79,0.00,,,0.00,0,Wunderground v.1.15,2013-04-17 00:15:00,
2013-04-16 20:25:00,65.3,60.3,30.02,West,280,10.0,15.0,84,1.18,,,0.05,0,Wunderground v.1.15,2013-04-17 00:25:00,
2013-04-16 20:30:00,63.6,59.7,30.00,East,100,8.0,9.0,87,1.99,,,0.15,0,Wunderground v.1.15,2013-04-17 00:30:00,
2013-04-16 20:40:00,61.6,58.9,29.99,East,90,9.0,14.0,91,0.09,,,0.20,0,Wunderground v.1.15,2013-04-17 00:40:00,
2013-04-16 20:45:00,61.6,58.9,30.00,East,87,7.0,14.0,91,0.05,,,0.20,0,Wunderground v.1.15,2013-04-17 00:45:00,
2013-04-16 20:55:00,61.6,59.3,29.99,NE,39,2.0,5.0,92,0.11,,,0.22,0,Wunderground v.1.15,2013-04-17 00:55:00,
2013-04-16 21:00:00,61.6,59.3,29.99,SE,125,2.0,2.0,92,0.06,,,0.22,0,Wunderground v.1.15,2013-04-17 01:00:00,
2013-04-16 21:10:00,61.7,59.4,30.01,East,83,2.0,2.0,92,0.00,,,0.22,0,Wunderground v.1.15,2013-04-17 01:10:00,
2013-04-16 21:15:00,61.7,59.4,30.01,NE,52,2.0,3.0,92,0.00,,,0.22,0,Wunderground v.1.15,2013-04-17 01:15:00,
2013-04-16 21:20:00,61.6,59.3,30.01,ESE,106,2.0,2.0,92,0.00,,,0.22,0,Wunderground v.1.15,2013-04-17 01:20:00,
2013-04-16 21:30:00,61.7,59.4,30.02,ESE,122,1.0,3.0,92,0.00,,,0.22,0,Wunderground v.1.15,2013-04-17 01:30:00,
2013-04-16 21:35:00,61.8,59.5,30.02,East,95,1.0,3.0,92,0.00,,,0.23,0,Wunderground v.1.15,2013-04-17 01:35:00,
2013-04-16 21:45:00,61.6,59.3,30.01,ESE,109,2.0,2.0,92,0.07,,,0.25,0,Wunderground v.1.15,2013-04-17 01:45:00,
2013-04-16 21:50:00,61.8,59.8,30.02,ESE,107,2.0,2.0,93,0.04,,,0.25,0,Wunderground v.1.15,2013-04-17 01:50:00,
2013-04-16 22:00:00,61.8,59.5,30.02,ESE,122,1.0,7.0,92,0.00,,,0.25,0,Wunderground v.1.15,2013-04-17 02:00:00,
2013-04-16 22:05:00,61.6,59.3,30.01,SE,132,4.0,7.0,92,0.00,,,0.25,0,Wunderground v.1.15,2013-04-17 02:05:00,
2013-04-16 22:15:00,61.5,59.2,30.01,SSE,147,3.0,4.0,92,0.00,,,0.25,0,Wunderground v.1.15,2013-04-17 02:15:00,
2013-04-16 22:20:00,61.4,59.4,30.01,SE,130,2.0,2.0,93,0.00,,,0.25,0,Wunderground v.1.15,2013-04-17 02:20:00,
2013-04-16 22:30:00,61.4,59.4,30.02,ESE,120,2.0,2.0,93,0.00,,,0.26,0,Wunderground v.1.15,2013-04-17 02:30:00,
2013-04-16 22:35:00,61.5,59.5,30.02,ESE,121,2.0,4.0,93,0.00,,,0.26,0,Wunderground v.1.15,2013-04-17 02:35:00,
2013-04-16 22:40:00,61.6,59.6,30.02,East,101,3.0,3.0,93,0.00,,,0.26,0,Wunderground v.1.15,2013-04-17 02:40:00,
2013-04-16 22:50:00,61.7,59.7,30.02,East,101,2.0,2.0,93,0.00,,,0.26,0,Wunderground v.1.15,2013-04-17 02:50:00,
2013-04-16 22:55:00,61.8,59.8,30.03,East,101,1.0,2.0,93,0.00,,,0.26,0,Wunderground v.1.15,2013-04-17 02:55:00,
2013-04-16 23:05:00,61.8,59.8,30.03,East,87,2.0,5.0,93,0.00,,,0.26,0,Wunderground v.1.15,2013-04-17 03:05:00,
2013-04-16 23:10:00,61.8,59.8,30.03,East,100,3.0,3.0,93,0.00,,,0.26,0,Wunderground v.1.15,2013-04-17 03:10:00,
2013-04-16 23:20:00,61.8,59.8,30.03,ESE,106,2.0,4.0,93,0.00,,,0.26,0,Wunderground v.1.15,2013-04-17 03:20:00,
2013-04-16 23:25:00,61.8,59.8,30.02,ESE,121,2.0,4.0,93,0.00,,,0.26,0,Wunderground v.1.15,2013-04-17 03:25:00,
2013-04-16 23:35:00,61.9,59.9,30.03,SE,127,2.0,3.0,93,0.00,,,0.26,0,Wunderground v.1.15,2013-04-17 03:35:00,
2013-04-16 23:40:00,61.9,59.9,30.03,East,86,1.0,1.0,93,0.00,,,0.26,0,Wunderground v.1.15,2013-04-17 03:40:00,
2013-04-16 23:50:00,62.0,60.0,30.03,ESE,110,1.0,3.0,93,0.00,,,0.26,0,Wunderground v.1.15,2013-04-17 03:50:00,
2013-04-16 23:55:00,61.9,59.9,30.02,SSE,149,2.0,3.0,93,0.00,,,0.26,0,Wunderground v.1.15,2013-04-17 03:55:00,